New Richmond, WI

10:30 AM CDT on July 28, 2017 (GMT -0500)
New Richmond Municipal

Weather History for KRNH - July, 2013

Change the Weather History Date:

Tuesday, July 16, 2013

  Actual Average (KSTP) Record (KSTP)
Temperature  
Mean Temperature 81 °F -  
Max Temperature 89 °F 80 °F 97 °F (2012)
Min Temperature 73 °F 62 °F 53 °F (2014)
Cooling Degree Days 16    
Growing Degree Days 31 (Base 50)    
Moisture  
Dew Point 69 °F    
Average Humidity 70    
Maximum Humidity 93    
Minimum Humidity 45    
Precipitation  
Precipitation 0.00 in - - ()
Sea Level Pressure  
Sea Level Pressure 30.21 in    
Wind  
Wind Speed 7 mph (SSW)    
Max Wind Speed 14 mph    
Max Gust Speed 18 mph    
Visibility 10 miles    
Events      
Averages and records for this station are not official NWS values.
T = Trace of Precipitation, MM = Missing Value Source: NWS Daily Summary

Daily Weather History Graph

Daily Weather History Graph

Search for Another Location

Airport or City:

Trip Planner

Search our weather history database for the weather conditions in past years. The results will help you decide how hot, cold, wet, or windy it might be!

Date:

Astronomy

Jul. 16, 2013 Rise Set
Actual Time 5:38 AM CDT 8:53 PM CDT
Civil Twilight 5:02 AM CDT 9:29 PM CDT
Nautical Twilight 4:15 AM CDT 10:15 PM CDT
Astronomical Twilight 3:17 AM CDT 11:13 PM CDT
Moon 2:29 PM CDT (7/16) 12:16 AM CDT (7/16)
Length of Visible Light 16h 26m
Length of Day
15h 15m
First Quarter, 56% of the Moon is Illuminated
Jul 16
First Quarter
Jul 22
Full
Jul 29
Last Quarter
Aug 6
New
Aug 14
First Quarter

Hourly Weather History & Observations

Time (CDT) Temp. Heat Index Dew Point Humidity Pressure Visibility Wind Dir Wind Speed Gust Speed Precip Events Conditions
12:15 AM 75.9 °F - 68.4 °F 77% 30.21 in 10.0 mi SSE 4.6 mph - N/A   Scattered Clouds
12:35 AM 75.6 °F - 68.5 °F 79% 30.21 in 10.0 mi SSE 4.6 mph - N/A   Scattered Clouds
12:55 AM 75.4 °F - 68.4 °F 79% 30.21 in 10.0 mi SSE 5.8 mph - N/A   Scattered Clouds
1:15 AM 75.6 °F - 68.4 °F 78% 30.21 in 10.0 mi SSE 6.9 mph - N/A   Clear
1:35 AM 75.4 °F - 68.2 °F 78% 30.21 in 10.0 mi SSE 4.6 mph - N/A   Clear
1:55 AM 74.8 °F - 68.4 °F 80% 30.21 in 10.0 mi SSE 5.8 mph - N/A   Clear
2:15 AM 74.3 °F - 68.9 °F 83% 30.21 in 10.0 mi South 6.9 mph - N/A   Scattered Clouds
2:35 AM 74.5 °F - 69.4 °F 84% 30.21 in 10.0 mi South 6.9 mph - N/A   Clear
2:55 AM 74.5 °F - 69.8 °F 85% 30.20 in 10.0 mi South 6.9 mph - N/A   Clear
3:15 AM 73.8 °F - 70.7 °F 90% 30.20 in 10.0 mi South 6.9 mph - N/A   Clear
3:35 AM 73.4 °F - 70.7 °F 91% 30.20 in 10.0 mi South 5.8 mph - N/A   Scattered Clouds
3:55 AM 73.2 °F - 70.9 °F 92% 30.20 in 7.0 mi South 5.8 mph - N/A   Scattered Clouds
4:15 AM 73.4 °F - 70.9 °F 92% 30.20 in 7.0 mi South 5.8 mph - N/A   Scattered Clouds
4:35 AM 73.6 °F - 71.2 °F 92% 30.20 in 10.0 mi South 5.8 mph - N/A   Scattered Clouds
4:55 AM 73.6 °F - 71.1 °F 92% 30.20 in 10.0 mi South 5.8 mph - N/A   Clear
5:15 AM 73.4 °F - 71.1 °F 92% 30.21 in 10.0 mi South 5.8 mph - N/A   Scattered Clouds
5:35 AM 73.6 °F - 71.2 °F 92% 30.21 in 10.0 mi South 4.6 mph - N/A   Scattered Clouds
5:55 AM 73.4 °F - 71.2 °F 93% 30.21 in 7.0 mi SSE 3.5 mph - N/A   Scattered Clouds
6:15 AM 73.2 °F - 71.2 °F 93% 30.21 in 7.0 mi SSE 3.5 mph - N/A   Scattered Clouds
6:35 AM 74.1 °F - 71.6 °F 92% 30.22 in 7.0 mi South 5.8 mph - N/A   Mostly Cloudy
6:55 AM 75.0 °F - 71.8 °F 90% 30.22 in 7.0 mi South 6.9 mph - N/A   Scattered Clouds
7:15 AM 76.1 °F - 72.0 °F 87% 30.22 in 10.0 mi South 5.8 mph - N/A   Clear
7:35 AM 77.0 °F - 72.5 °F 86% 30.23 in 10.0 mi SSW 6.9 mph - N/A   Clear
7:55 AM 78.3 °F - 72.5 °F 82% 30.23 in 10.0 mi SSW 6.9 mph - N/A   Clear
8:15 AM 79.3 °F - 70.7 °F 75% 30.23 in 10.0 mi SSW 6.9 mph - N/A   Clear
8:35 AM 80.4 °F 84.1 °F 70.9 °F 73% 30.23 in 10.0 mi SW 6.9 mph - N/A   Clear
8:55 AM 81.0 °F 84.6 °F 70.5 °F 70% 30.24 in 10.0 mi SW 9.2 mph - N/A   Clear
9:15 AM 81.5 °F 85.3 °F 70.5 °F 69% 30.23 in 10.0 mi SW 9.2 mph - N/A   Clear
9:35 AM 82.4 °F 86.7 °F 70.9 °F 68% 30.23 in 10.0 mi SSW 8.1 mph - N/A   Clear
9:55 AM 83.3 °F 87.9 °F 70.9 °F 66% 30.23 in 10.0 mi SW 6.9 mph - N/A   Clear
10:15 AM 83.7 °F 88.3 °F 70.9 °F 65% 30.23 in 10.0 mi SSW 8.1 mph - N/A   Clear
10:55 AM 85.1 °F 89.8 °F 70.3 °F 61% 30.23 in 10.0 mi WSW 8.1 mph - N/A   Clear
11:15 AM 85.6 °F 90.8 °F 70.7 °F 61% 30.23 in 10.0 mi SW 11.5 mph - N/A   Clear
11:35 AM 86.0 °F 91.1 °F 70.5 °F 60% 30.22 in 10.0 mi SW 11.5 mph 18.4 mph N/A   Scattered Clouds
11:55 AM 86.2 °F 90.7 °F 69.6 °F 58% 30.23 in 10.0 mi SW 8.1 mph - N/A   Scattered Clouds
12:15 PM 86.5 °F 91.0 °F 69.8 °F 57% 30.23 in 10.0 mi WSW 8.1 mph - N/A   Scattered Clouds
12:35 PM 85.3 °F 89.1 °F 69.1 °F 58% 30.22 in 10.0 mi SW 9.2 mph - N/A   Scattered Clouds
12:55 PM 87.6 °F 92.7 °F 70.2 °F 56% 30.22 in 10.0 mi SSW 9.2 mph - N/A   Scattered Clouds
1:15 PM 88.2 °F 92.1 °F 68.7 °F 52% 30.22 in 10.0 mi SW 10.4 mph - N/A   Clear
1:35 PM 88.7 °F 91.9 °F 67.1 °F 49% 30.22 in 10.0 mi SW 10.4 mph 18.4 mph N/A   Clear
1:55 PM 89.4 °F 92.7 °F 67.6 °F 48% 30.22 in 10.0 mi SW 12.7 mph 18.4 mph N/A   Clear
2:15 PM 88.2 °F 90.9 °F 66.7 °F 49% 30.22 in 10.0 mi SSW 9.2 mph - N/A   Scattered Clouds
2:35 PM 89.8 °F 92.9 °F 67.3 °F 47% 30.22 in 10.0 mi SW 13.8 mph 17.3 mph N/A   Scattered Clouds
3:55 PM 89.2 °F 92.4 °F 67.3 °F 48% 30.20 in 10.0 mi SW 11.5 mph 16.1 mph N/A   Scattered Clouds
4:15 PM 89.4 °F 91.9 °F 66.0 °F 46% 30.20 in 10.0 mi SW 10.4 mph 16.1 mph N/A   Scattered Clouds
4:35 PM 89.6 °F 92.2 °F 66.0 °F 46% 30.20 in 10.0 mi SSW 11.5 mph - N/A   Scattered Clouds
4:55 PM 89.6 °F 91.8 °F 65.8 °F 45% 30.20 in 10.0 mi SW 10.4 mph - N/A   Scattered Clouds
5:15 PM 89.2 °F 92.0 °F 66.6 °F 47% 30.20 in 10.0 mi SW 10.4 mph - N/A   Scattered Clouds
5:35 PM 89.6 °F 92.6 °F 66.7 °F 47% 30.20 in 10.0 mi WSW 10.4 mph - N/A   Clear
5:55 PM 88.7 °F 91.5 °F 66.7 °F 48% 30.20 in 10.0 mi SW 8.1 mph - N/A   Clear
6:15 PM 88.2 °F 90.9 °F 66.6 °F 49% 30.19 in 10.0 mi SW 10.4 mph - N/A   Clear
6:35 PM 88.5 °F 91.6 °F 66.9 °F 49% 30.19 in 10.0 mi SW 12.7 mph - N/A   Scattered Clouds
6:55 PM 87.8 °F 91.1 °F 67.5 °F 51% 30.19 in 10.0 mi SW 8.1 mph - N/A   Scattered Clouds
7:15 PM 86.7 °F 90.3 °F 68.0 °F 54% 30.19 in 10.0 mi SW 6.9 mph - N/A   Clear
7:35 PM 86.0 °F 89.1 °F 67.8 °F 54% 30.19 in 10.0 mi SW 5.8 mph - N/A   Clear
7:55 PM 84.9 °F 88.2 °F 68.2 °F 57% 30.19 in 10.0 mi SW 6.9 mph - N/A   Clear
8:15 PM 83.7 °F 86.7 °F 68.2 °F 59% 30.20 in 10.0 mi SW 6.9 mph - N/A   Clear
8:35 PM 82.0 °F 85.3 °F 68.9 °F 64% 30.20 in 10.0 mi SSW 4.6 mph - N/A   Clear
8:55 PM 81.5 °F 84.8 °F 69.1 °F 66% 30.20 in 10.0 mi SSW 5.8 mph - N/A   Clear
9:15 PM 81.0 °F 84.1 °F 68.9 °F 67% 30.21 in 10.0 mi SSW 5.8 mph - N/A   Clear
9:35 PM 79.9 °F - 68.9 °F 69% 30.22 in 10.0 mi SSW 4.6 mph - N/A   Clear
9:55 PM 78.4 °F - 69.8 °F 75% 30.23 in 10.0 mi SW 3.5 mph - N/A   Clear
10:15 PM 77.9 °F - 69.3 °F 75% 30.23 in 10.0 mi South 5.8 mph - N/A   Clear
10:35 PM 77.9 °F - 69.3 °F 75% 30.23 in 10.0 mi South 4.6 mph - N/A   Clear
10:55 PM 77.5 °F - 69.3 °F 76% 30.23 in 10.0 mi South 6.9 mph - N/A   Clear
11:15 PM 77.2 °F - 69.1 °F 76% 30.23 in 10.0 mi South 4.6 mph - N/A   Clear
11:35 PM 76.3 °F - 68.9 °F 78% 30.23 in 10.0 mi SSW 3.5 mph - N/A   Clear
11:55 PM 74.1 °F - 70.7 °F 89% 30.24 in 10.0 mi Calm Calm - N/A   Clear